Overview Statistics Trail Chart Weather Telemetry Raw packets
 

This is the latest recevied weather packets stored in our database for station/object DL4MGC-10. If no packets are shown the sender has not sent any weather packets the latest 10 day(s).

<< 29 30 31 32 33 34 35 >>
Time Temp. Humidity Pressure Rain* Wind** Luminosity Snow
1788011787 26.11° C 54% 1016.1 hPa - - - -
1788010887 25° C 54% 1016.1 hPa - - - -
1788009987 25.56° C 55% 1016.3 hPa - - - -
1788009087 25.56° C 55% 1016.4 hPa - - - -
1788008187 24.44° C 56% 1016.6 hPa - - - -
1788007287 25° C 56% 1016.7 hPa - - - -
1788006387 24.44° C 59% 1016.8 hPa - - - -
1788005486 23.89° C 57% 1017.1 hPa - - - -
1788004586 23.89° C 57% 1017.1 hPa - - - -
1788003686 24.44° C 58% 1017.3 hPa - - - -
1788002786 24.44° C 59% 1017.4 hPa - - - -
1788001886 24.44° C 60% 1017.4 hPa - - - -
1788000986 23.89° C 60% 1017.5 hPa - - - -
1788000086 24.44° C 59% 1017.7 hPa - - - -
1787999186 24.44° C 65% 1017.8 hPa - - - -
1787998286 22.78° C 65% 1018 hPa - - - -
1787997385 23.33° C 62% 1018.1 hPa - - - -
1787996485 23.33° C 64% 1018.3 hPa - - - -
1787995585 23.33° C 65% 1018.3 hPa - - - -
1787994685 22.78° C 68% 1018.5 hPa - - - -
1787993785 21.67° C 68% 1018.4 hPa - - - -
1787992885 21.67° C 73% 1018.4 hPa - - - -
1787991985 21.67° C 72% 1018.4 hPa - - - -
1787991085 21.11° C 74% 1018.3 hPa - - - -
1787990185 22.22° C 74% 1018.3 hPa - - - -

* Rain since midnight (hover to see other rain measurements)
** Current wind speed in m/s (hover to see current wind gust speed)